Regional Weather Roundup
Issued by NWS

Home | Current Version | Previous Version | Graphics & Text | Print | Product List | Glossary On
Versions: 1 2 3 4 5 6 7 8 9 10 11 12 13 14 15 16 17 18 19 20 21 22 23 24 25 26 27 28 29 30 31 32 33 34 35 36 37 38 39 40 41 42 43 44 45 46 47 48 49 50
000
ASUS45 KBOU 261307
RWRCO

WEATHER ROUNDUP FOR COLORADO
NATIONAL WEATHER SERVICE DENVER/BOULDER CO
700 AM MDT THU MAR 26 2015

NOTE: "FAIR" INDICATES FEW OR NO CLOUDS BELOW 12000 FEET WITH NO
SIGNIFICANT WEATHER AND/OR OBSTRUCTIONS TO VISIBILITY.

COZ001>005-013-030-031-261400-
...NORTHWEST COLORADO...

CITY           SKY/WX    TMP DP  RH WIND       PRES   REMARKS
CRAIG          PTCLDY    20  17  88 SE3       30.39S
HAYDEN         CLEAR     23  18  80 E9        30.38R WCI  13
MEEKER         CLEAR     22  17  81 NE5       30.39R WCI  16
MOUNT WERNER   NOT AVBL
STEAMBOAT SPGS CLEAR     20  18  93 CALM      30.38S
WALDEN         MOCLDY    19  14  79 S5        30.32R WCI  13
$$

COZ006>008-011-261400-
...WEST CENTRAL VALLEYS...

CITY           SKY/WX    TMP DP  RH WIND       PRES   REMARKS
GRAND JUNCTION CLEAR     30  18  60 SE10      30.37R WCI  21
MONTROSE       CLEAR     26  16  65 SE7       30.39R WCI  18
EAGLE          PTCLDY    19  18  93 CALM      30.44R
RIFLE          CLEAR     23  15  71 S5        30.41R WCI  17
DELTA          CLEAR     30  16  56 NE5       30.38S WCI  25
NUCLA          CLEAR     30  14  51 SE3       30.38R
$$

COZ017>023-064>068-261400-
...SOUTHWEST COLORADO...

CITY           SKY/WX    TMP DP  RH WIND       PRES   REMARKS
DURANGO        PTCLDY    22  11  62 CALM      30.29R
CORTEZ         CLEAR     23  12  62 E9        30.30S WCI  13
PAGOSA SPRINGS PTCLDY    24   9  52 CALM      30.31R
TELLURIDE      PTCLDY    24  11  59 E3        30.37S
WOLF CREEK PAS PTCLDY    19   1  45 N9G16     30.36R WCI   9
$$

COZ009-010-012-014-032>034-037-058>063-261400-
...CENTRAL COLORADO...

CITY           SKY/WX    TMP DP  RH WIND       PRES   REMARKS
ASPEN          PTCLDY    19  13  77 CALM      30.38R
BUENA VISTA    CLEAR     32   9  38 NW24G40   30.28R WCI  18
COPPER MTN     NOT AVBL
BERTHOUD PASS  SNOW       7   1  78 MISG      30.28R VSB 1/4
COTTONWOOD PAS CLEAR     30   9  40 SW5       30.28R WCI  25
GUNNISON       PTCLDY    19  10  68 CALM      30.38R
KREMMLING      MOCLDY    23  18  80 CALM      30.39R
LEADVILLE      PTCLDY    11   6  81 N12       30.32R WCI  -3
SALIDA         CLEAR     24  14  66 CALM      30.37R
SUNLIGHT       CLEAR     21  14  73 N5        30.41R WCI  15
WILKERSON PASS PTCLDY    18   9  68 N17G29    30.26S WCI   2
$$

COZ069>075-261400-
...SAN LUIS VALLEY/SANGRE DE CRISTO MOUNTAINS...

CITY           SKY/WX    TMP DP  RH WIND       PRES   REMARKS
ALAMOSA        PTCLDY    15   9  76 SW3       30.31R
LA VETA PASS   PTCLDY    18  10  73 S9        30.27R WCI   6
SAGUACHE       PTCLDY    28  10  47 N10       30.31R WCI  19
$$

COZ035-036-038>040-261400-
...NORTHERN COLORADO FRONT RANGE...

CITY           SKY/WX    TMP DP  RH WIND       PRES   REMARKS
DENVER INTL AP MOCLDY    32  22  66 SW9       30.21R WCI  24
DMNS CITY PARK   N/A     31  21  64 S6        30.23R WCI  26
AURORA         NOT AVBL
FRONT RANGE AP MOCLDY    32  23  69 SW6       30.22R WCI  26
ERIE MUNI ARPT PTCLDY    27  26  96 CALM      30.23R
BOULDER MUN AP PTCLDY    32  30  93 CALM      30.21R
CENTENNIAL     PTCLDY    28  19  69 S3        30.22R
BROOMFIELD     MOCLDY    34  23  64 CALM      30.22R
FORT COLLINS   CLOUDY    30  28  93 CALM      30.22S VSB 1/4
LONGMONT       MOCLDY    27  25  91 SW5       30.24R WCI  22
$$

COZ041-046-047-076>085-087-088-261400-
...PIKES PEAK/PALMER DIVIDE AND SOUTHERN FOOTHILLS...

CITY           SKY/WX    TMP DP  RH WIND       PRES   REMARKS
COLO. SPRINGS  PTCLDY    26  18  71 N6        30.24R WCI  19
A. F. ACADEMY  PTCLDY    20  15  78 N10       30.22R WCI   9
ELLICOTT       CLEAR    N/A N/A N/A N5        30.22R
FALCON         CLEAR     26  15  62 W8        30.24R WCI  18
FORT CARSON    CLEAR     25  20  81 NW8       30.22R WCI  16
LIMON          CLEAR     22  19  89 N5        30.22R WCI  16
MONUMENT HILL  CLEAR     25  14  63 W8        30.21R WCI  16
TRINIDAD       CLEAR     26  19  74 SW17      30.26S WCI  13
$$

COZ042>045-048>051-090-091-261400-
...NORTHEAST COLORADO...

CITY           SKY/WX    TMP DP  RH WIND       PRES   REMARKS
GREELEY ARPT   CLOUDY    28  21  74 CALM      30.20S VSB 1/2
AKRON          CLEAR     28  26  92 W12       30.19R WCI  18
BURLINGTON     CLEAR     27  24  89 W8        30.21R WCI  19
WRAY           PTCLDY    31  28  91 W8        30.20R WCI  23
STERLING       CLEAR     27  27 100 S7        30.19R WCI  19
HOLYOKE        PTCLDY    30  27  86 W8        30.18F WCI  23
FORT MORGAN    CLEAR     28  26  96 W7        30.21S WCI  20
$$

COZ086-089-092>099-261400-
...SOUTHEAST COLORADO...

CITY           SKY/WX    TMP DP  RH WIND       PRES   REMARKS
PUEBLO         CLEAR     27  24  89 W5        30.24R WCI  22
LA JUNTA       CLEAR     29  25  85 W14       30.24R WCI  18
LAMAR          CLEAR     27  26  96 W5        30.24R WCI  22
SPRINGFIELD      N/A     30  26  85 W7        30.23S WCI  23
$$


USA.gov is the U.S. government's official web portal to all federal, state and local government web resources and services.